TimePDT,TemperatureF,Dew PointF,Humidity,Sea Level PressureIn,VisibilityMPH,Wind Direction,Wind SpeedMPH,Gust SpeedMPH,PrecipitationIn,Events,Conditions,WindDirDegrees,DateUTC
12:56 AM,86.0,62.1,44,29.98,10.0,NW,12.7,-,N/A,,Clear,320,2013-06-27 07:56:00
1:56 AM,84.0,60.1,44,29.98,10.0,NW,15.0,-,N/A,,Clear,320,2013-06-27 08:56:00
2:56 AM,82.0,59.0,45,29.98,10.0,NW,13.8,-,N/A,,Clear,320,2013-06-27 09:56:00
3:56 AM,80.1,59.0,48,29.98,10.0,NW,13.8,-,N/A,,Clear,320,2013-06-27 10:56:00
4:56 AM,79.0,60.1,52,29.99,10.0,NW,11.5,-,N/A,,Clear,320,2013-06-27 11:56:00
5:56 AM,78.1,59.0,52,30.01,10.0,NNW,12.7,-,N/A,,Clear,330,2013-06-27 12:56:00
6:56 AM,72.1,59.0,63,30.03,10.0,NNW,12.7,-,N/A,,Clear,330,2013-06-27 13:56:00
7:56 AM,75.4,59.0,57,30.04,10.0,NNW,12.7,-,N/A,,Clear,330,2013-06-27 14:56:00
8:56 AM,78.3,60.1,53,30.05,10.0,NNW,10.4,-,N/A,,Clear,330,2013-06-27 15:56:00
9:56 AM,79.9,60.1,51,30.05,10.0,NNW,9.2,-,N/A,,Clear,340,2013-06-27 16:56:00
10:56 AM,84.9,59.0,41,30.04,10.0,Variable,5.8,21.9,N/A,,Clear,0,2013-06-27 17:56:00
11:56 AM,87.6,60.1,39,30.02,10.0,North,5.8,-,N/A,,Clear,360,2013-06-27 18:56:00
12:56 PM,90.5,60.1,36,30.01,10.0,Variable,3.5,-,N/A,,Clear,0,2013-06-27 19:56:00
1:56 PM,92.1,60.1,34,30.00,10.0,Variable,3.5,-,N/A,,Clear,0,2013-06-27 20:56:00
2:56 PM,93.7,61.0,33,29.98,10.0,NNW,6.9,-,N/A,,Partly Cloudy,340,2013-06-27 21:56:00
3:56 PM,93.7,60.1,32,29.97,10.0,NW,9.2,-,N/A,,Partly Cloudy,310,2013-06-27 22:56:00
4:56 PM,93.0,61.0,34,29.95,10.0,NNE,10.4,-,N/A,,Partly Cloudy,20,2013-06-27 23:56:00
5:56 PM,94.1,60.1,32,29.94,10.0,North,8.1,-,N/A,,Clear,350,2013-06-28 00:56:00
6:56 PM,94.1,60.1,32,29.94,10.0,North,12.7,-,N/A,,Clear,360,2013-06-28 01:56:00
7:56 PM,93.7,63.0,36,29.94,10.0,NNW,12.7,-,N/A,,Clear,330,2013-06-28 02:56:00
8:56 PM,90.5,63.0,40,29.96,10.0,NW,10.4,-,N/A,,Partly Cloudy,320,2013-06-28 03:56:00
9:56 PM,87.8,61.0,40,29.97,10.0,NNW,10.4,-,N/A,,Clear,330,2013-06-28 04:56:00
10:56 PM,84.4,60.1,44,29.98,10.0,NW,9.2,-,N/A,,Clear,320,2013-06-28 05:56:00
11:56 PM,82.2,57.9,43,29.98,10.0,NW,8.1,-,N/A,,Clear,320,2013-06-28 06:56:00